Temp
51 50 50 50 51 51 51 52 52 52 53 53 55 57 58 60 62 62 63 64 62 64 63 63 63 60 63 64 65 64 63 63 60 49 49 49 48 47 47 48 50 49 53
51 50 50 50 50 49 51 51 52 52 53 53 54 56 58 61 61 61 61 61 59 58 57 56 54 54 52 52 53 52 54 58 53 46 46 44 44 46 46 46 48 50 50
50 50 48 48 49 49 49 50 52 52 53 53 54 55 59 60 62 59 56 53 53 52 52 51 51 51 49 50 50 48 48 49 50 46 42 44 43 44 43 44 44 45 51
50 48 47 47 48 48 50 50 51 53 52 53 54 56 59 61 58 54 52 51 51 51 51 51 51 50 49 49 49 47 46 44 44 43 42 42 42 42 43 41 41 43 44
48 49 47 50 50 49 50 50 52 52 53 53 54 57 57 57 55 51 51 50 50 50 51 52 52 53 53 51 48 46 46 44 43 41 40 40 39 40 41 41 41 43 44
50 50 52 52 53 50 49 50 51 51 52 52 55 55 53 53 49 51 51 50 49 48 47 48 50 51 51 51 50 49 46 42 41 40 40 39 39 40 40 42 43 43 42
50 51 51 52 51 51 51 50 49 49 50 53 52 51 50 50 47 48 49 48 47 47 47 47 47 48 49 48 48 49 49 48 47 43 40 40 40 41 45 43 43 44 44
47 48 50 51 50 51 51 48 47 49 51 50 49 49 48 48 46 46 48 48 48 47 47 46 46 46 46 46 45 44 44 44 45 44 42 43 45 45 45 45 45 43 44
45 46 47 50 48 49 48 47 49 50 48 47 47 47 46 45 45 46 48 48 46 46 47 46 47 46 45 46 48 45 44 44 47 47 46 44 44 44 45 45 43 44 42
43 45 47 47 48 48 48 48 49 47 46 46 46 46 46 46 46 47 47 47 45 46 47 48 46 45 44 45 46 44 42 42 44 44 46 46 46 46 46 44 45 43 41
44 46 47 48 47 47 48 48 46 45 45 44 44 44 44 45 45 44 45 47 46 47 47 44 43 43 43 43 44 45 43 44 45 45 45 45 45 45 45 45 45 45 43
43 44 45 45 47 48 46 45 44 44 42 42 41 41 43 43 44 43 43 44 47 45 42 41 41 42 41 41 44 41 42 45 45 45 45 44 44 45 45 46 46 46 47
42 42 43 45 46 46 45 43 42 42 41 41 41 40 41 43 44 44 43 44 44 43 44 43 43 42 42 43 42 42 43 46 46 44 43 43 44 45 46 47 48 48 47
41 42 43 43 44 45 44 43 42 42 41 40 40 40 42 43 44 46 46 46 46 45 45 46 45 44 43 44 45 45 46 45 45 44 44 45 46 47 46 48 48 48 47
42 42 41 40 39 38 39 40 41 41 42 41 41 43 41 39 40 42 44 44 43 43 46 46 44 43 43 44 43 44 44 45 44 44 44 45 45 46 46 46 47 46 44
40 40 40 40 39 39 38 37 39 39 40 40 41 42 40 40 41 41 41 40 41 43 44 41 40 41 41 41 42 42 42 43 42 44 44 44 45 45 46 46 47 46 45
39 39 39 39 39 38 37 37 35 38 40 40 40 39 40 40 41 41 41 40 40 43 42 42 41 41 41 41 41 41 40 41 43 43 43 43 44 45 45 45 46 47 45
40 40 39 39 39 39 39 39 41 39 38 39 39 41 40 40 40 41 41 43 43 42 43 42 41 41 40 40 40 40 41 41 41 41 42 42 43 44 44 44 46 45 43
41 40 40 39 40 41 42 43 43 43 41 40 41 41 42 40 39 40 41 43 41 40 41 40 40 40 40 40 40 40 40 39 40 41 41 41 41 43 43 44 44 39 39
39 40 41 41 41 42 43 43 43 43 43 42 40 40 44 43 41 40 41 41 40 39 39 39 39 39 39 40 40 40 40 40 40 40 41 41 41 43 43 43 43 42 43
40 41 42 43 42 43 43 43 42 40 40 38 38 39 35 41 39 39 38 38 39 39 38 38 39 39 40 40 41 41 41 40 40 41 41 41 41 41 43 43 43 42 42
42 43 43 44 45 44 43 43 43 41 41 39 38 37 35 39 38 37 36 36 37 37 38 39 37 37 38 39 40 39 39 39 40 41 41 41 41 41 42 42 42 42 41
45 45 45 45 44 42 43 44 43 41 40 40 40 39 38 37 36 36 35 36 37 37 37 38 38 39 39 39 39 40 40 39 39 42 41 41 40 40 40 40 40 41 41
46 45 44 44 44 43 42 41 40 38 40 39 38 37 37 36 36 36 36 37 37 37 38 38 39 39 39 40 41 41 41 41 42 42 42 41 40 39 40 40 40 40 40
46 45 45 44 43 42 41 41 41 41 41 39 38 37 37 37 37 37 37 37 38 38 38 38 38 39 40 40 40 41 34 33 40 35 42 41 40 39 39 40 40 40 40
44 44 43 43 42 42 41 41 41 41 40 39 39 38 38 37 37 36 37 37 37 37 37 38 38 39 39 39 37 33 32 32 37 33 42 41 40 39 40 39 40 40 39
MSLP
1012.94 1012.85 1012.72 1012.47 1012.34 1012.14 1011.90 1011.60 1011.22 1010.65 1010.07 1009.51 1008.93 1008.30 1007.53 1006.73 1006.05 1005.81 1005.24 1004.81 1004.53 1004.29 1004.33 1004.24 1004.17 1004.20 1003.95 1003.68 1003.51 1003.76 1003.98 1004.32 1005.09 1006.98 1007.65 1007.96 1009.22 1009.68 1010.38 1010.82 1011.54 1011.85 1012.40
1012.39 1012.29 1012.21 1012.15 1012.00 1011.82 1011.52 1011.13 1010.67 1010.10 1009.51 1009.05 1008.36 1007.65 1006.92 1006.20 1005.79 1005.56 1005.15 1004.85 1004.62 1004.59 1004.59 1004.63 1004.91 1004.82 1004.78 1004.53 1004.32 1004.33 1004.40 1004.44 1005.10 1006.85 1008.47 1009.00 1009.97 1010.64 1010.72 1011.24 1011.88 1011.93 1012.55
1011.87 1011.88 1011.86 1011.84 1011.75 1011.50 1011.12 1010.65 1010.19 1009.69 1009.05 1008.35 1007.80 1007.11 1006.40 1005.84 1005.48 1005.39 1005.36 1005.24 1005.24 1005.31 1005.21 1005.16 1005.40 1005.43 1005.75 1005.66 1005.51 1005.43 1005.63 1005.67 1005.78 1006.12 1007.97 1009.46 1010.10 1010.85 1010.98 1011.60 1012.10 1012.58 1013.06
1011.30 1011.37 1011.44 1011.36 1011.20 1010.97 1010.62 1010.13 1009.63 1009.19 1008.59 1007.86 1007.24 1006.62 1005.93 1005.52 1005.47 1005.51 1005.71 1005.65 1005.65 1005.93 1005.85 1005.78 1006.00 1006.22 1006.44 1006.37 1006.61 1006.74 1006.83 1007.01 1007.38 1008.01 1008.14 1009.95 1010.35 1011.26 1011.68 1011.67 1012.72 1013.47 1013.30
1010.78 1010.73 1010.65 1010.52 1010.46 1010.38 1010.13 1009.53 1009.01 1008.60 1007.99 1007.44 1006.73 1005.85 1005.59 1005.58 1005.59 1005.65 1005.95 1006.04 1006.01 1006.34 1006.52 1006.57 1006.71 1006.91 1007.04 1007.28 1007.48 1007.73 1007.75 1008.00 1008.67 1009.27 1010.35 1011.01 1011.26 1011.96 1012.08 1012.54 1012.62 1013.29 1013.69
1010.00 1009.90 1009.75 1009.71 1009.60 1009.73 1009.48 1008.96 1008.50 1008.06 1007.54 1006.94 1006.00 1005.61 1005.81 1005.80 1005.86 1005.90 1006.05 1006.31 1006.63 1006.69 1007.24 1007.64 1007.76 1007.95 1008.19 1008.27 1008.42 1008.62 1008.73 1009.18 1009.89 1010.45 1011.49 1012.15 1012.09 1012.43 1012.76 1012.23 1012.76 1013.41 1013.67
1009.53 1009.29 1009.01 1008.92 1008.87 1008.87 1008.64 1008.32 1008.12 1007.73 1007.24 1006.63 1006.22 1006.15 1006.27 1006.34 1006.05 1006.22 1006.56 1006.90 1007.08 1007.42 1007.88 1008.24 1008.45 1008.91 1009.05 1009.10 1009.38 1009.39 1009.66 1010.25 1010.87 1011.26 1011.97 1012.56 1012.88 1012.57 1012.67 1012.87 1013.22 1013.26 1014.01
1008.99 1008.54 1008.12 1007.88 1007.95 1008.03 1008.00 1007.96 1007.81 1007.41 1006.99 1006.69 1006.71 1006.72 1006.87 1007.06 1006.77 1006.84 1007.12 1007.62 1007.87 1008.31 1008.63 1008.91 1009.05 1009.57 1009.90 1009.98 1010.37 1010.51 1010.84 1011.42 1011.86 1012.22 1012.38 1012.77 1012.95 1012.91 1012.82 1013.10 1013.29 1013.75 1014.07
1008.11 1007.87 1007.59 1007.37 1007.46 1007.62 1007.63 1007.69 1007.34 1007.02 1007.05 1007.09 1007.21 1007.36 1007.43 1007.76 1007.82 1007.67 1007.45 1008.15 1008.52 1009.08 1009.57 1009.93 1010.03 1010.51 1010.94 1010.93 1011.36 1011.50 1012.13 1012.61 1012.86 1013.03 1012.97 1013.24 1013.51 1013.53 1013.40 1013.32 1013.57 1013.84 1014.57
1007.83 1007.56 1007.33 1007.29 1007.31 1007.33 1007.29 1007.18 1007.04 1007.05 1007.42 1007.69 1007.85 1007.92 1008.08 1008.24 1008.52 1008.53 1008.51 1008.72 1009.14 1009.83 1010.46 1010.79 1011.10 1011.44 1011.71 1011.61 1011.62 1012.39 1013.10 1013.74 1013.71 1013.93 1013.88 1013.95 1013.99 1013.96 1013.93 1013.74 1014.15 1014.54 1014.77
1007.11 1007.00 1006.86 1006.85 1007.06 1007.07 1007.05 1007.04 1007.15 1007.44 1007.78 1008.17 1008.39 1008.80 1008.87 1009.13 1009.38 1009.49 1009.53 1009.80 1009.94 1010.49 1011.19 1011.90 1012.21 1012.18 1012.26 1012.79 1012.85 1013.30 1013.84 1014.27 1014.47 1014.50 1014.55 1014.61 1014.78 1014.72 1014.71 1014.98 1015.08 1014.71 1014.83
1006.58 1006.65 1006.63 1006.73 1006.84 1006.81 1006.98 1007.21 1007.47 1007.77 1008.27 1008.79 1009.13 1009.40 1009.97 1010.27 1010.23 1010.59 1010.61 1010.87 1011.18 1011.41 1012.35 1012.88 1013.16 1013.08 1013.07 1013.58 1013.73 1014.08 1014.30 1014.45 1014.75 1014.87 1014.97 1015.29 1015.49 1015.46 1015.48 1015.50 1015.49 1015.54 1015.14
1006.04 1006.13 1006.37 1006.54 1006.64 1006.76 1007.02 1007.49 1008.00 1008.45 1008.93 1009.45 1009.80 1010.36 1010.97 1011.35 1011.55 1011.69 1011.87 1012.15 1012.39 1012.68 1013.22 1013.59 1013.72 1013.89 1014.09 1014.75 1014.92 1014.77 1014.85 1015.05 1015.28 1015.66 1015.94 1016.05 1016.03 1015.99 1015.78 1015.74 1015.64 1015.39 1015.14
1005.73 1005.90 1006.09 1006.29 1006.50 1006.96 1007.64 1008.24 1008.68 1009.18 1009.70 1010.04 1010.21 1010.89 1011.79 1012.26 1012.45 1012.72 1012.93 1013.23 1013.41 1013.70 1014.11 1014.42 1014.60 1014.84 1015.15 1015.49 1015.49 1015.60 1015.72 1015.90 1016.11 1016.40 1016.51 1016.51 1016.28 1016.19 1016.01 1015.78 1015.57 1015.35 1015.01
1005.73 1005.77 1006.14 1006.79 1007.21 1008.00 1008.84 1009.21 1009.44 1010.07 1010.36 1010.86 1011.33 1011.81 1012.56 1013.20 1013.72 1013.58 1013.79 1014.19 1014.62 1014.92 1014.98 1015.32 1015.53 1015.92 1016.23 1016.27 1016.44 1016.59 1016.70 1016.76 1016.84 1017.06 1016.95 1016.98 1016.69 1016.40 1016.31 1015.99 1015.79 1015.54 1015.38
1006.30 1006.88 1007.46 1007.77 1008.33 1008.98 1009.59 1010.41 1011.07 1011.24 1011.69 1012.10 1012.38 1012.55 1013.83 1014.02 1014.16 1014.49 1014.84 1015.07 1015.34 1015.58 1015.97 1016.37 1016.85 1017.14 1017.38 1017.47 1017.46 1017.69 1017.73 1017.75 1017.91 1017.88 1017.70 1017.43 1017.18 1016.90 1016.57 1016.36 1016.23 1016.12 1016.04
1007.47 1008.02 1008.48 1008.87 1009.42 1010.03 1010.77 1011.29 1011.87 1013.24 1013.54 1013.87 1013.97 1014.35 1014.54 1014.76 1015.16 1015.47 1015.84 1016.14 1016.41 1016.52 1017.07 1017.67 1018.01 1018.17 1018.38 1018.55 1018.60 1018.66 1018.89 1019.00 1018.80 1018.52 1018.23 1017.88 1017.62 1017.39 1017.12 1017.11 1016.96 1016.77 1016.34
1008.66 1009.10 1009.53 1009.92 1010.67 1011.08 1011.61 1012.13 1012.78 1013.47 1014.37 1015.26 1015.51 1015.41 1015.61 1015.90 1016.25 1016.72 1017.00 1017.04 1017.55 1018.11 1018.43 1018.73 1019.06 1019.26 1019.45 1019.63 1019.77 1019.89 1019.91 1019.73 1019.50 1019.19 1018.86 1018.75 1018.55 1018.22 1017.94 1017.68 1017.37 1017.06 1016.82
1009.79 1010.26 1010.79 1011.23 1011.73 1012.02 1012.54 1013.11 1013.80 1014.45 1015.02 1015.82 1016.24 1016.77 1017.07 1017.23 1017.48 1017.68 1017.84 1018.31 1018.85 1019.38 1019.70 1019.94 1020.20 1020.33 1020.48 1020.65 1020.79 1020.76 1020.70 1020.57 1020.16 1019.90 1019.80 1019.50 1019.25 1018.85 1018.57 1018.24 1017.94 1017.66 1017.48
1011.05 1011.44 1011.66 1012.10 1012.63 1012.98 1013.55 1014.03 1014.63 1015.23 1015.84 1016.65 1017.29 1017.67 1017.81 1017.88 1018.45 1019.07 1019.53 1019.80 1020.10 1020.55 1020.90 1021.09 1021.31 1021.39 1021.48 1021.53 1021.60 1021.54 1021.26 1021.04 1020.95 1020.76 1020.55 1020.33 1019.96 1019.51 1019.16 1018.84 1018.56 1018.30 1018.09
1012.19 1012.52 1012.64 1012.95 1013.51 1014.06 1014.56 1015.16 1015.73 1016.34 1017.08 1017.85 1018.46 1018.80 1018.84 1019.11 1019.93 1020.48 1020.91 1021.30 1021.60 1021.89 1022.08 1022.16 1022.28 1022.40 1022.53 1022.47 1022.28 1022.11 1022.04 1021.98 1021.82 1021.57 1021.17 1020.86 1020.57 1020.22 1019.97 1019.65 1019.27 1018.91 1018.62
1013.12 1013.44 1013.75 1014.06 1014.62 1015.26 1015.89 1016.50 1017.02 1017.60 1018.30 1018.94 1019.62 1019.98 1020.07 1020.57 1021.23 1021.83 1022.30 1022.63 1022.87 1023.03 1023.10 1023.03 1023.29 1023.55 1023.51 1023.27 1023.11 1022.99 1022.90 1022.70 1022.43 1022.07 1021.72 1021.42 1021.14 1020.85 1020.49 1020.06 1019.73 1019.41 1019.13
1013.95 1014.34 1014.83 1015.45 1016.05 1016.61 1017.13 1017.69 1018.24 1018.80 1019.43 1020.02 1020.49 1020.96 1021.48 1022.09 1022.60 1023.02 1023.34 1023.61 1023.75 1023.90 1024.05 1024.04 1024.07 1024.03 1024.06 1024.05 1023.95 1023.61 1023.35 1023.27 1023.03 1022.48 1022.14 1021.91 1021.70 1021.44 1021.10 1020.65 1020.35 1020.00 1019.75
1015.07 1015.53 1016.09 1016.70 1017.22 1017.80 1018.37 1018.93 1019.44 1019.92 1020.46 1020.99 1021.49 1022.01 1022.57 1023.11 1023.53 1023.93 1024.21 1024.47 1024.61 1024.75 1024.78 1024.75 1024.78 1024.81 1024.73 1024.51 1024.29 1024.11 1023.88 1023.67 1023.43 1023.14 1022.84 1022.61 1022.31 1021.98 1021.69 1021.40 1021.10 1020.79 1020.46
1016.40 1016.81 1017.33 1017.82 1018.39 1018.97 1019.44 1019.91 1020.39 1020.89 1021.40 1021.90 1022.51 1023.09 1023.68 1024.04 1024.42 1024.88 1025.21 1025.34 1025.41 1025.45 1025.63 1025.68 1025.70 1025.54 1025.26 1024.99 1024.81 1024.66 1024.57 1024.34 1024.02 1023.84 1023.43 1023.16 1022.85 1022.60 1022.36 1022.12 1021.81 1021.54 1021.29
1017.65 1018.03 1018.55 1019.08 1019.59 1020.02 1020.45 1020.92 1021.46 1021.91 1022.39 1022.97 1023.49 1024.00 1024.45 1024.92 1025.37 1025.68 1025.95 1026.06 1026.21 1026.40 1026.50 1026.50 1026.35 1026.07 1025.81 1025.69 1025.60 1025.39 1025.15 1024.93 1024.68 1024.45 1024.02 1023.79 1023.43 1023.25 1023.02 1022.85 1022.65 1022.41 1022.26
Wind_Speed
5 4 5 5 5 6 7 9 10 9 10 11 12 12 13 12 8 7 9 11 8 7 4 5 6 6 6 6 6 6 7 7 7 2 4 7 7 10 8 9 6 6 6
6 5 6 6 6 7 9 10 10 11 11 12 12 12 13 10 6 7 9 6 3 3 4 5 5 4 5 5 4 4 3 3 3 6 4 4 7 6 8 9 5 6 4
6 6 5 7 8 10 10 11 10 10 11 12 12 12 10 7 5 2 2 4 5 6 6 6 5 5 5 4 5 5 5 6 3 9 8 4 4 4 8 6 5 4 2
6 5 5 6 8 9 11 11 10 10 11 12 11 11 8 7 1 4 5 6 7 8 8 8 8 8 7 8 7 7 6 8 9 8 10 7 5 4 5 7 6 4 3
7 7 6 8 8 8 11 10 10 9 11 11 12 8 2 2 3 7 7 7 9 10 10 10 10 14 18 14 7 8 9 9 8 9 7 6 6 3 4 2 4 2 3
9 8 8 12 14 9 10 10 8 9 10 11 9 3 0 1 10 12 11 10 10 12 11 11 12 18 21 24 24 23 15 11 11 9 7 6 3 3 1 2 4 2 2
8 11 13 14 11 12 8 6 7 9 9 6 3 3 3 5 13 16 17 9 10 10 11 10 11 9 13 13 20 22 21 19 13 8 9 4 3 1 2 3 3 5 4
13 16 15 11 12 8 5 5 7 6 6 2 3 4 4 5 14 17 18 11 11 11 11 11 12 12 12 14 13 13 14 11 8 6 6 4 4 3 4 3 5 6 4
12 12 13 9 4 7 8 8 6 4 3 4 4 4 7 7 9 12 15 12 12 13 11 11 12 13 10 12 13 15 13 11 13 14 12 12 12 11 5 4 4 3 2
12 11 8 7 7 5 5 4 1 5 5 5 7 6 11 9 10 8 10 9 14 11 11 11 15 10 12 14 13 10 10 5 5 6 7 9 10 12 15 9 3 3 1
9 9 8 6 4 5 3 1 5 7 8 8 9 8 10 10 11 12 11 9 9 11 10 8 6 12 16 14 11 7 5 5 8 7 7 6 6 7 7 7 6 5 4
9 9 6 4 4 1 2 5 7 9 9 9 10 10 9 11 16 19 20 16 14 11 9 6 7 17 19 14 8 11 10 9 6 5 6 5 4 4 3 3 4 3 4
7 5 5 4 2 3 6 8 7 8 8 7 8 9 9 9 11 21 20 19 18 13 10 14 18 17 19 13 12 12 9 6 6 6 5 3 2 3 3 1 3 3 4
5 3 3 4 3 8 7 6 6 6 7 7 10 11 9 9 9 9 10 11 17 13 13 12 15 15 15 9 9 9 7 6 6 5 4 3 3 3 4 2 5 2 6
2 5 9 10 14 13 12 8 9 8 7 8 9 10 9 9 7 10 10 9 8 7 9 8 8 8 7 7 8 8 7 6 6 5 5 5 5 5 5 4 5 5 6
10 9 9 10 11 11 12 14 25 24 24 21 18 15 10 14 19 18 18 16 15 13 9 8 7 7 7 7 8 8 8 8 6 4 5 5 6 6 6 5 5 6 5
12 11 10 11 10 11 11 12 15 19 25 23 22 18 18 17 20 20 19 18 16 13 9 8 8 8 8 8 8 8 7 5 5 6 5 6 6 6 6 6 5 5 6
14 19 11 10 10 11 11 13 13 15 14 11 15 14 20 18 17 16 13 12 11 11 8 9 9 8 8 8 7 7 6 6 6 6 7 6 5 5 5 5 7 7 7
11 10 11 10 10 12 11 14 13 13 12 11 11 15 18 20 19 19 17 10 10 9 8 9 8 8 8 7 6 7 7 6 6 6 6 6 5 5 6 6 6 8 6
13 19 15 12 11 12 12 13 12 12 11 10 8 7 7 11 10 10 9 8 9 8 8 8 8 7 7 7 7 6 7 8 7 6 6 5 5 6 7 8 7 6 6
10 10 16 13 12 11 11 12 11 10 10 9 8 9 11 11 9 9 8 8 8 8 8 8 7 8 6 6 6 7 8 6 6 5 5 6 6 6 6 6 6 6 6
10 11 11 12 12 12 12 11 10 11 10 10 9 10 14 9 9 9 9 8 8 7 6 8 7 6 5 6 6 6 6 6 6 6 6 6 6 7 6 7 7 7 7
11 12 13 13 12 13 11 10 10 10 10 9 9 9 9 8 9 9 9 8 7 8 6 7 6 6 6 5 4 5 6 6 5 6 7 7 7 7 7 7 8 8 8
12 12 12 11 10 11 11 10 10 12 10 9 9 9 9 9 10 11 9 8 8 8 7 7 7 7 5 5 6 6 5 6 6 7 9 8 7 8 7 8 8 10 9
12 12 11 11 10 9 10 10 10 9 9 9 9 9 9 10 10 9 8 7 8 8 9 7 5 7 10 12 11 10 8 8 8 6 8 11 12 12 10 9 9 10 11
11 11 10 9 9 9 8 9 9 9 10 9 9 9 9 9 8 8 7 8 7 7 7 6 8 12 12 10 11 10 9 8 7 6 9 10 11 11 10 11 13 8 11
Wind_Direction
273 271 285 297 297 294 290 286 282 284 285 291 287 286 282 274 265 271 275 281 267 283 304 299 303 337 281 279 251 240 228 218 216 82 56 112 86 106 98 91 79 77 81
282 289 290 294 296 294 293 287 284 287 290 288 282 283 277 275 287 285 299 315 336 41 44 57 30 16 17 5 10 12 355 300 120 128 108 96 92 88 95 90 80 78 90
266 271 280 286 290 291 284 286 284 287 289 289 281 284 283 288 296 345 52 76 70 66 71 72 57 50 41 33 35 44 29 21 359 144 127 113 106 105 85 83 74 63 53
259 252 265 272 279 280 284 282 282 285 286 288 285 284 277 287 251 98 104 96 85 72 66 67 61 56 50 47 54 58 67 74 78 87 95 106 97 77 98 106 84 46 45
250 240 252 275 275 275 281 280 281 283 290 290 289 276 297 285 136 122 109 97 94 83 72 75 74 76 72 70 64 56 68 74 79 84 70 76 86 87 113 144 110 148 70
237 237 277 290 288 275 270 283 277 292 298 297 281 92 56 116 121 117 113 101 96 90 82 72 74 77 75 75 77 77 79 86 82 86 86 91 58 61 160 134 105 142 115
267 279 288 278 272 274 259 274 288 296 300 287 53 90 90 118 114 112 109 102 101 97 97 94 86 78 77 78 73 72 70 80 79 98 103 90 86 193 121 92 80 81 81
277 275 266 257 257 250 263 280 279 288 286 95 88 88 104 96 111 110 107 103 99 94 91 94 96 88 85 87 80 70 67 69 82 85 86 107 109 88 71 110 121 108 91
261 270 263 254 257 266 272 265 272 270 86 89 91 101 103 84 90 116 111 108 99 91 85 83 91 95 86 104 87 82 74 71 71 81 85 78 70 58 87 112 101 101 113
272 270 268 258 248 254 242 274 301 106 104 97 86 78 95 89 65 86 100 111 104 98 90 89 75 75 86 77 89 86 84 48 82 79 84 63 55 54 53 54 66 117 164
260 265 257 230 248 247 247 291 131 116 106 96 87 79 76 78 68 59 74 97 100 101 92 78 63 82 78 72 78 85 85 105 95 91 78 70 58 57 54 54 49 79 92
253 251 242 245 241 237 266 125 119 113 100 95 95 83 68 70 72 66 66 65 80 89 83 75 76 79 74 67 68 84 88 89 84 75 70 58 48 39 34 47 57 96 88
241 224 221 234 207 212 149 120 109 105 106 104 96 94 88 80 81 76 75 78 82 82 84 87 75 70 71 64 64 62 72 87 86 69 61 50 27 360 351 41 134 115 82
223 203 213 225 194 110 94 92 96 91 102 103 107 97 95 92 87 88 84 81 74 74 77 77 75 71 66 61 57 51 64 74 81 69 60 29 17 43 49 35 64 64 64
123 88 87 87 87 81 67 65 78 63 76 105 103 100 102 92 82 89 93 92 89 86 87 75 66 60 58 56 56 53 51 54 67 54 53 49 45 46 39 25 38 48 57
82 79 86 89 86 86 89 79 65 74 72 74 81 93 81 91 87 86 83 78 70 74 75 74 67 66 64 62 64 65 56 54 47 65 53 48 48 45 44 41 43 43 43
84 88 86 86 90 94 92 95 94 74 75 76 78 76 78 88 84 77 70 67 64 76 77 73 73 67 66 64 62 59 57 37 49 61 56 45 41 43 41 44 43 44 43
81 82 83 86 92 96 100 102 105 108 107 85 48 73 72 78 76 78 84 80 69 61 72 74 72 67 65 67 65 62 58 52 55 53 50 40 36 40 40 38 40 44 37
79 83 86 89 92 102 104 103 104 103 96 91 88 73 78 78 74 69 69 76 81 75 72 70 69 68 65 63 66 65 59 52 48 51 42 38 29 40 46 41 43 33 30
80 91 96 98 99 98 98 101 99 95 90 84 79 78 82 75 72 66 61 68 69 68 69 69 65 64 64 60 58 61 60 48 44 45 39 32 42 45 42 36 29 30 31
92 88 98 94 92 91 93 91 90 86 78 74 69 75 78 84 78 70 67 62 71 73 74 72 67 63 60 59 58 58 57 49 41 47 42 36 39 44 38 39 37 36 30
90 92 92 92 93 90 90 89 84 86 88 86 80 66 75 75 77 76 74 73 71 71 69 75 68 58 51 54 55 61 59 54 46 48 48 44 41 38 32 32 33 35 34
95 93 90 88 87 90 89 84 86 85 85 85 85 83 77 77 80 82 84 80 75 70 63 69 74 66 53 52 51 55 60 51 43 42 45 42 38 32 29 33 33 36 37
86 85 88 87 85 82 80 83 86 82 88 87 87 84 84 86 88 86 82 80 77 71 65 65 62 62 60 60 58 56 55 57 53 47 50 46 41 37 40 40 41 38 36
91 92 91 90 89 92 90 86 87 89 89 87 85 87 91 91 90 87 84 80 75 70 63 62 61 61 56 56 56 55 41 39 56 40 52 49 49 47 47 43 39 41 37
89 89 87 84 86 89 91 93 91 92 92 95 96 94 96 96 97 97 91 85 80 73 70 60 57 58 54 47 45 39 33 34 52 37 55 52 48 45 45 43 39 40 39